Date String (YYYY-MM-DD hh:mm:ss) UTC,Instrument flags,Ambient pressure (hPa),Sample flow (lpm),Bypass flow (lpm),Sample temperature (°C),Ambient temperature (°C),ASC tube jacket temperature (°C),LED temperature (°C),Box temperature (°C),Sample RH (%),Span deviation,Mass concentration (μg/m³),Mass concentration (μg/m³),Mass concentration (μg/m³)
DateTimeUTC,F1_M11,P_M11,Q1_M11,Q2_M11,T1_M11,T2_M11,T3_M11,T4_M11,T5_M11,U1_M11,ZSPAN_M11,X0_M11,X2_M11,X1_M11
2022-01-15 10:00:00,,0835.6,5.01,0.00,21.6,22.6,00.0,30.5,23.5,10.0,0000.0,0003.45,0002.41,0002.21
2022-01-15 10:01:00,,0835.5,5.00,0.00,21.7,22.5,00.0,30.5,23.6,10.0,0000.0,0003.31,0002.42,0002.22
2022-01-15 10:02:00,,0835.5,4.99,0.00,21.6,22.1,00.0,30.5,23.4,10.0,0000.0,0002.98,0002.39,0002.22
2022-01-15 10:03:00,,0835.5,4.99,0.00,21.6,21.8,00.0,30.5,23.3,10.0,0000.0,0003.00,0002.41,0002.22
2022-01-15 10:04:00,,0835.5,5.00,0.00,21.5,21.5,00.0,30.5,23.1,10.0,0000.0,0003.05,0002.43,0002.23
2022-01-15 10:05:00,,0835.5,5.00,0.00,21.4,21.2,00.0,30.5,22.9,10.0,0000.0,0003.16,0002.47,0002.24
2022-01-15 10:06:00,,0835.5,4.99,0.00,21.3,21.0,00.0,30.5,22.8,10.1,0000.0,0003.22,0002.49,0002.24
2022-01-15 10:07:00,,0835.5,5.00,0.00,21.3,20.8,00.0,30.4,22.7,10.1,0000.0,0003.17,0002.51,0002.25
2022-01-15 10:08:00,,0835.5,5.01,0.00,21.2,20.6,00.0,30.4,22.5,10.1,0000.0,0003.19,0002.53,0002.25
2022-01-15 10:09:00,,0835.5,5.01,0.00,21.1,20.7,00.0,30.4,22.6,10.0,0000.0,0003.21,0002.53,0002.25
2022-01-15 10:10:00,,0835.5,4.99,0.00,21.3,21.6,00.0,30.4,23.0,09.9,0000.0,0003.23,0002.54,0002.25
2022-01-15 10:11:00,,0835.5,5.01,0.00,21.4,22.3,00.0,30.5,23.3,09.8,0000.0,0003.29,0002.56,0002.25
2022-01-15 10:12:00,,0835.5,5.01,0.00,21.6,22.7,00.0,30.5,23.5,09.7,0000.0,0003.35,0002.58,0002.27
2022-01-15 10:13:00,,0835.5,5.00,0.00,21.6,22.4,00.0,30.5,23.5,09.6,0000.0,0003.38,0002.62,0002.30
2022-01-15 10:14:00,,0835.5,4.99,0.00,21.6,22.0,00.0,30.5,23.2,09.7,0000.0,0003.36,0002.64,0002.33
2022-01-15 10:15:00,,0835.6,5.00,0.00,21.5,21.6,00.0,30.5,23.1,09.8,0000.0,0003.43,0002.66,0002.35
2022-01-15 10:16:00,,0835.5,5.02,0.00,21.4,21.3,00.0,30.5,23.0,09.9,0000.0,0003.76,0002.67,0002.36
2022-01-15 10:17:00,,0835.5,5.00,0.00,21.4,21.0,00.0,30.5,22.8,10.0,0000.0,0003.77,0002.65,0002.37
2022-01-15 10:18:00,,0835.5,4.99,0.00,21.3,20.8,00.0,30.5,22.7,10.0,0000.0,0003.79,0002.65,0002.38
2022-01-15 10:19:00,,0835.5,5.00,0.00,21.2,20.7,00.0,30.4,22.6,10.0,0000.0,0003.76,0002.64,0002.38
2022-01-15 10:20:00,,0835.5,5.01,0.00,21.1,20.5,00.0,30.4,22.5,10.1,0000.0,0005.22,0002.67,0002.39
2022-01-15 10:21:00,,0835.5,5.00,0.00,21.1,20.9,00.0,30.4,22.6,10.1,0000.0,0006.55,0002.70,0002.39
2022-01-15 10:22:00,,0835.5,4.99,0.00,21.3,21.7,00.0,30.4,23.0,09.8,0000.0,0006.74,0002.68,0002.38
2022-01-15 10:23:00,,0835.5,5.00,0.00,21.4,22.5,00.0,30.4,23.3,09.6,0000.0,0007.06,0002.64,0002.34
2022-01-15 10:24:00,,0835.5,5.00,0.00,21.6,22.6,00.0,30.5,23.4,09.4,0000.0,0007.39,0002.60,0002.29
2022-01-15 10:25:00,,0835.5,4.99,0.00,21.5,22.2,00.0,30.5,23.3,09.4,0000.0,0007.64,0002.56,0002.23
2022-01-15 10:26:00,,0835.5,5.01,0.00,21.5,21.8,00.0,30.5,23.1,09.4,0000.0,0007.60,0002.51,0002.18
2022-01-15 10:27:00,,0835.5,5.00,0.00,21.4,21.4,00.0,30.4,22.8,09.3,0000.0,0007.36,0002.42,0002.12
2022-01-15 10:28:00,,0835.5,5.00,0.00,21.3,21.0,00.0,30.4,22.7,09.2,0000.0,0007.24,0002.35,0002.05
2022-01-15 10:29:00,,0835.5,4.99,0.00,21.1,20.7,00.0,30.4,22.5,09.3,0000.0,0007.51,0002.33,0001.99
2022-01-15 10:30:00,,0835.5,4.99,0.00,21.0,20.5,00.0,30.3,22.4,09.3,0000.0,0007.63,0002.29,0001.96
2022-01-15 10:31:00,,0835.6,5.00,0.00,21.0,20.8,00.0,30.3,22.5,09.3,0000.0,0006.59,0002.24,0001.91
2022-01-15 10:32:00,,0835.5,5.00,0.00,21.2,21.7,00.0,30.3,22.9,09.2,0000.0,0005.22,0002.17,0001.85
2022-01-15 10:33:00,,0835.5,5.00,0.00,21.4,22.4,00.0,30.4,23.3,09.1,0000.0,0004.96,0002.12,0001.80
2022-01-15 10:34:00,,0835.5,4.99,0.00,21.5,22.8,00.0,30.4,23.5,08.9,0000.0,0004.47,0002.06,0001.77
2022-01-15 10:35:00,,0835.6,5.00,0.00,21.5,22.4,00.0,30.5,23.4,08.9,0000.0,0003.92,0002.03,0001.75
2022-01-15 10:36:00,,0835.5,4.99,0.00,21.5,22.0,00.0,30.5,23.2,08.9,0000.0,0003.45,0001.96,0001.71
2022-01-15 10:37:00,,0835.5,5.01,0.00,21.5,21.7,00.0,30.5,23.1,08.9,0000.0,0003.38,0001.92,0001.68
2022-01-15 10:38:00,,0835.5,5.00,0.00,21.4,21.4,00.0,30.5,23.0,08.9,0000.0,0003.37,0001.91,0001.68
2022-01-15 10:39:00,,0835.5,5.00,0.00,21.4,21.2,00.0,30.4,22.9,08.9,0000.0,0003.45,0001.93,0001.67
2022-01-15 10:40:00,,0835.4,5.00,0.00,21.3,21.0,00.0,30.4,22.9,08.9,0000.0,0002.93,0001.90,0001.66
2022-01-15 10:41:00,,0835.5,4.99,0.00,21.3,20.9,00.0,30.4,22.9,08.9,0000.0,0002.67,0001.87,0001.63
2022-01-15 10:42:00,,0835.5,5.00,0.00,21.3,20.7,00.0,30.4,22.8,08.9,0000.0,0002.46,0001.85,0001.61
2022-01-15 10:43:00,,0835.4,4.99,0.00,21.2,20.6,00.0,30.4,22.8,08.9,0000.0,0002.45,0001.83,0001.61
2022-01-15 10:44:00,,0835.5,5.01,0.00,21.2,20.7,00.0,30.4,22.8,09.0,0000.0,0002.62,0001.89,0001.62
2022-01-15 10:45:00,,0835.5,4.99,0.00,21.3,21.6,00.0,30.4,23.1,09.2,0000.0,0002.87,0001.99,0001.64
2022-01-15 10:46:00,,0835.5,5.00,0.00,21.5,22.4,00.0,30.4,23.4,09.3,0000.0,0003.61,0002.07,0001.68
2022-01-15 10:47:00,,0835.5,5.00,0.00,21.6,22.5,00.0,30.5,23.6,09.3,0000.0,0004.22,0002.19,0001.74
2022-01-15 10:48:00,,0835.5,4.99,0.00,21.6,22.2,00.0,30.5,23.4,09.2,0000.0,0004.37,0002.25,0001.77
2022-01-15 10:49:00,,0835.5,5.01,0.00,21.6,21.9,00.0,30.5,23.3,09.3,0000.0,0004.79,0002.34,0001.81
2022-01-15 10:50:00,,0835.4,5.02,0.00,21.5,21.5,00.0,30.5,23.1,09.4,0000.0,0004.93,0002.40,0001.86
2022-01-15 10:51:00,,0835.4,5.00,0.00,21.5,21.3,00.0,30.5,23.0,09.4,0000.0,0005.14,0002.49,0001.90
2022-01-15 10:52:00,,0835.3,5.00,0.00,21.4,21.0,00.0,30.5,22.8,09.2,0000.0,0005.23,0002.54,0001.93
2022-01-15 10:53:00,,0835.3,5.00,0.00,21.3,20.8,00.0,30.4,22.7,09.1,0000.0,0005.26,0002.53,0001.92
2022-01-15 10:54:00,,0835.3,5.00,0.00,21.2,20.6,00.0,30.4,22.6,09.0,0000.0,0005.26,0002.53,0001.93
2022-01-15 10:55:00,,0835.3,5.00,0.00,21.2,20.9,00.0,30.4,22.7,09.0,0000.0,0005.33,0002.52,0001.92
2022-01-15 10:56:00,,0835.3,4.99,0.00,21.3,21.7,00.0,30.4,23.1,08.9,0000.0,0005.19,0002.46,0001.91
2022-01-15 10:57:00,,0835.3,5.00,0.00,21.5,22.5,00.0,30.5,23.4,08.8,0000.0,0004.61,0002.37,0001.86
2022-01-15 10:58:00,,0835.3,5.00,0.00,21.7,22.8,00.0,30.5,23.6,08.8,0000.0,0004.32,0002.28,0001.83
2022-01-15 10:59:00,,0835.3,5.00,0.00,21.7,22.4,00.0,30.5,23.5,08.8,0000.0,0005.27,0002.25,0001.82
